Location: Unspecified
(0.0000°N, 0.0000°E)
Time: 23:04:19
(UTC+00:00)

Vanguard 2 - Pass Details

Date: 08 December 2017
Orbit: 553 x 2939 km, 32.9° (Epoch: 23 April)

Event Time Altitude Azimuth Distance (km) Brightness Sun altitude
Rises 15:30:33 0° 268° (W) 4,767 12.5 32.3°
Reaches altitude 10° 15:36:08 10° 290° (WNW) 3,200 11.4 31.0°
Maximum altitude 15:39:44 14° 319° (NW) 2,547 10.5 30.2°
Drops below altitude 10° 15:42:44 10° 349° (N) 2,522 10.1 29.5°
Sets 15:46:12 0° 16° (NNE) 3,136 10.3 28.8°
